• In Germany
  • List of Countries
  • For 7 days
  • Water Temperature
  • Satellite Maps
  • Weather Map
  • Weather Widgets
  • user-avatar
    Login

    Hourly Weather Kaprun

    Today, 23 September, Saturday

    Time Temperature Precipitation Wind Pressure Humidity
    00:00 +1°C° 0 mm 1 mps 599 mmHg 83%
    01:00 +1°C° 0 mm 2 mps 599 mmHg 78%
    02:00 -1°C° 0 mm 2 mps 599 mmHg 79%
    03:00 -1°C° 0 mm 2 mps 599 mmHg 80%
    04:00 -1°C° 0 mm 2 mps 598 mmHg 81%
    05:00 -1°C° 0 mm 2 mps 599 mmHg 80%
    06:00 +2°C° 0 mm 1 mps 599 mmHg 79%
    07:00 +2°C° 0 mm 2 mps 600 mmHg 79%
    08:00 +5°C° 0 mm 1 mps 600 mmHg 76%
    09:00 +7°C° 0 mm 1 mps 601 mmHg 72%
    10:00 +9°C° 0 mm 1 mps 602 mmHg 69%
    11:00 +10°C° 0 mm 1 mps 602 mmHg 68%
    12:00 +10°C° 0 mm 1 mps 602 mmHg 67%
    13:00 +11°C° 0 mm 1 mps 602 mmHg 67%
    14:00 +10°C° 0.3 mm 1 mps 601 mmHg 71%
    15:00 +9°C° 0.3 mm 1 mps 601 mmHg 76%
    16:00 +9°C° 0.3 mm 1 mps 600 mmHg 80%
    17:00 +7°C° 0.3 mm 1 mps 600 mmHg 85%
    18:00 +5°C° 0.3 mm 1 mps 599 mmHg 91%
    19:00 +4°C° 0.3 mm 1 mps 598 mmHg 96%
    20:00 +3°C° 0.1 mm 1 mps 599 mmHg 96%
    21:00 +3°C° 0.1 mm 1 mps 599 mmHg 97%
    22:00 +3°C° 0.1 mm 1 mps 599 mmHg 97%
    23:00 +2°C° 0 mm 1 mps 598 mmHg 97%

    Tomorrow, 24 September, Sunday

    Time Temperature Precipitation Wind Pressure Humidity
    00:00 +2°C° 0 mm 1 mps 598 mmHg 97%
    01:00 +2°C° 0 mm 1 mps 598 mmHg 97%
    02:00 +2°C° 0 mm 1 mps 598 mmHg 97%
    03:00 +2°C° 0 mm 1 mps 598 mmHg 96%
    04:00 +2°C° 0 mm 1 mps 598 mmHg 96%
    05:00 +2°C° 0.1 mm 1 mps 598 mmHg 96%
    06:00 +3°C° 0.1 mm 1 mps 598 mmHg 96%
    07:00 +3°C° 0.1 mm 1 mps 598 mmHg 95%
    08:00 +4°C° 0.2 mm 1 mps 599 mmHg 92%
    09:00 +5°C° 0.2 mm 1 mps 599 mmHg 89%
    10:00 +6°C° 0.2 mm 1 mps 600 mmHg 85%
    11:00 +6°C° 0.2 mm 1 mps 600 mmHg 84%
    12:00 +7°C° 0.2 mm 1 mps 600 mmHg 83%
    13:00 +7°C° 0.2 mm 1 mps 600 mmHg 82%
    14:00 +7°C° 0.3 mm 1 mps 600 mmHg 83%
    15:00 +7°C° 0.3 mm 1 mps 600 mmHg 84%
    16:00 +6°C° 0.3 mm 1 mps 599 mmHg 84%
    17:00 +5°C° 0.1 mm 1 mps 599 mmHg 88%
    18:00 +4°C° 0.1 mm 1 mps 599 mmHg 92%
    19:00 +3°C° 0.1 mm 1 mps 598 mmHg 95%
    20:00 +2°C° 0 mm 1 mps 598 mmHg 95%
    21:00 +2°C° 0 mm 1 mps 598 mmHg 96%
    22:00 +1°C° 0 mm 1 mps 598 mmHg 96%
    23:00 +1°C° 0 mm 1 mps 598 mmHg 95%

    Day after tomorrow, 25 September, Monday

    Time Temperature Precipitation Wind Pressure Humidity
    00:00 0°C° 0 mm 1 mps 598 mmHg 94%
    01:00 0°C° 0 mm 1 mps 598 mmHg 94%
    02:00 0°C° 0 mm 1 mps 597 mmHg 92%
    03:00 0°C° 0 mm 1 mps 597 mmHg 90%
    04:00 0°C° 0 mm 1 mps 597 mmHg 88%
    05:00 0°C° 0 mm 1 mps 597 mmHg 86%
    06:00 0°C° 0 mm 1 mps 597 mmHg 85%
    07:00 +1°C° 0 mm 1 mps 597 mmHg 84%
    08:00 +3°C° 0 mm 1 mps 598 mmHg 77%
    09:00 +5°C° 0 mm 0 mps 599 mmHg 71%
    10:00 +7°C° 0 mm 0 mps 601 mmHg 65%
    11:00 +8°C° 0 mm 0 mps 601 mmHg 63%
    12:00 +9°C° 0 mm 1 mps 601 mmHg 61%
    13:00 +10°C° 0 mm 1 mps 601 mmHg 60%
    14:00 +10°C° 0.1 mm 1 mps 600 mmHg 64%
    15:00 +9°C° 0.1 mm 1 mps 600 mmHg 68%
    16:00 +8°C° 0.1 mm 1 mps 600 mmHg 73%
    17:00 +6°C° 0.1 mm 1 mps 599 mmHg 79%
    18:00 +4°C° 0.1 mm 1 mps 598 mmHg 85%
    19:00 +2°C° 0.1 mm 1 mps 598 mmHg 91%
    20:00 +2°C° 0 mm 1 mps 598 mmHg 91%
    21:00 +2°C° 0 mm 1 mps 598 mmHg 91%
    22:00 +1°C° 0 mm 1 mps 598 mmHg 91%
    23:00 +1°C° 0 mm 1 mps 598 mmHg 91%

    26 September, Tuesday

    Time Temperature Precipitation Wind Pressure Humidity
    00:00 +1°C° 0 mm 1 mps 598 mmHg 91%
    01:00 +1°C° 0 mm 1 mps 598 mmHg 91%
    02:00 +1°C° 0 mm 1 mps 598 mmHg 91%
    03:00 +1°C° 0 mm 1 mps 598 mmHg 91%
    04:00 +1°C° 0 mm 1 mps 598 mmHg 90%
    05:00 +1°C° 0 mm 1 mps 598 mmHg 89%
    06:00 +1°C° 0 mm 1 mps 598 mmHg 88%
    07:00 +2°C° 0 mm 1 mps 599 mmHg 87%
    08:00 +4°C° 0 mm 1 mps 599 mmHg 80%
    09:00 +6°C° 0 mm 1 mps 600 mmHg 73%
    10:00 +8°C° 0 mm 1 mps 601 mmHg 66%
    11:00 +9°C° 0 mm 1 mps 601 mmHg 64%
    12:00 +10°C° 0 mm 1 mps 601 mmHg 61%
    13:00 +10°C° 0 mm 2 mps 602 mmHg 59%
    14:00 +9°C° 0.1 mm 2 mps 601 mmHg 63%
    15:00 +9°C° 0.1 mm 2 mps 601 mmHg 66%
    16:00 +8°C° 0.1 mm 2 mps 601 mmHg 70%
    17:00 +7°C° 0.1 mm 1 mps 600 mmHg 77%
    18:00 +5°C° 0.1 mm 1 mps 599 mmHg 85%
    19:00 +4°C° 0.1 mm 1 mps 599 mmHg 92%
    20:00 +3°C° 0 mm 1 mps 599 mmHg 92%
    21:00 +3°C° 0 mm 1 mps 599 mmHg 92%
    22:00 +3°C° 0 mm 1 mps 599 mmHg 92%
    23:00 +2°C° 0 mm 1 mps 599 mmHg 92%

    27 September, Wednesday

    Time Temperature Precipitation Wind Pressure Humidity
    00:00 +2°C° 0 mm 1 mps 599 mmHg 92%
    01:00 +2°C° 0 mm 1 mps 599 mmHg 92%
    02:00 +2°C° 0 mm 1 mps 599 mmHg 91%
    03:00 +1°C° 0 mm 1 mps 599 mmHg 91%
    04:00 +1°C° 0 mm 1 mps 599 mmHg 91%
    05:00 +1°C° 0 mm 1 mps 599 mmHg 90%
    06:00 +2°C° 0 mm 1 mps 600 mmHg 89%
    07:00 +2°C° 0 mm 1 mps 600 mmHg 88%
    08:00 +5°C° 0 mm 1 mps 601 mmHg 80%
    09:00 +7°C° 0 mm 1 mps 602 mmHg 73%
    10:00 +10°C° 0 mm 1 mps 603 mmHg 66%
    11:00 +10°C° 0.1 mm 1 mps 603 mmHg 64%
    12:00 +11°C° 0.1 mm 1 mps 604 mmHg 63%
    13:00 +11°C° 0.1 mm 1 mps 604 mmHg 62%
    14:00 +11°C° 0.4 mm 1 mps 603 mmHg 67%
    15:00 +10°C° 0.4 mm 1 mps 603 mmHg 71%
    16:00 +10°C° 0.4 mm 1 mps 603 mmHg 76%
    17:00 +8°C° 0.4 mm 1 mps 602 mmHg 81%
    18:00 +6°C° 0.4 mm 1 mps 602 mmHg 87%
    19:00 +3°C° 0.4 mm 0 mps 601 mmHg 93%
    20:00 +4°C° 0.1 mm 1 mps 601 mmHg 94%
    21:00 +3°C° 0.1 mm 1 mps 601 mmHg 94%
    22:00 +3°C° 0.1 mm 1 mps 601 mmHg 94%
    23:00 +3°C° 0 mm 1 mps 601 mmHg 93%

    28 September, Thursday

    Time Temperature Precipitation Wind Pressure Humidity
    00:00 +2°C° 0 mm 1 mps 601 mmHg 93%
    01:00 +2°C° 0 mm 1 mps 601 mmHg 92%
    02:00 +2°C° 0 mm 1 mps 601 mmHg 92%
    03:00 +2°C° 0 mm 1 mps 601 mmHg 92%
    04:00 +2°C° 0 mm 1 mps 601 mmHg 91%
    05:00 +2°C° 0 mm 1 mps 602 mmHg 90%
    06:00 +3°C° 0 mm 1 mps 602 mmHg 89%
    07:00 +3°C° 0 mm 1 mps 602 mmHg 88%
    08:00 +6°C° 0 mm 1 mps 604 mmHg 80%
    09:00 +8°C° 0 mm 1 mps 605 mmHg 72%
    10:00 +11°C° 0 mm 1 mps 606 mmHg 64%
    11:00 +11°C° 0 mm 1 mps 606 mmHg 62%
    12:00 +12°C° 0 mm 1 mps 606 mmHg 60%
    13:00 +13°C° 0 mm 1 mps 606 mmHg 58%
    14:00 +12°C° 0.4 mm 1 mps 606 mmHg 64%
    15:00 +11°C° 0.4 mm 1 mps 606 mmHg 69%
    16:00 +11°C° 0.4 mm 1 mps 605 mmHg 75%
    17:00 +9°C° 0.2 mm 1 mps 605 mmHg 82%
    18:00 +7°C° 0.2 mm 1 mps 604 mmHg 89%
    19:00 +5°C° 0.2 mm 1 mps 604 mmHg 96%
    20:00 +5°C° 0 mm 1 mps 604 mmHg 96%
    21:00 +4°C° 0 mm 1 mps 604 mmHg 96%
    22:00 +4°C° 0 mm 1 mps 604 mmHg 97%
    23:00 +4°C° 0 mm 1 mps 604 mmHg 96%
    Show more